Time,TemperatureF,DewpointF,PressureIn,WindDirection,WindDirectionDegrees,WindSpeedMPH,WindSpeedGustMPH,Humidity,HourlyPrecipIn,Conditions,Clouds,dailyrainin,SoftwareType,DateUTC
2013-01-14 00:00:00,39.5,39.0,30.01,South,178,1.2,0.0,98,0.00,RA,FEW,0.00,WeatherDisplay:10.37,2013-01-14 05:00:00,
2013-01-14 00:02:00,39.5,39.0,30.01,South,178,0.0,0.0,98,0.00,RA,FEW,0.00,WeatherDisplay:10.37,2013-01-14 05:02:00,
2013-01-14 00:03:00,39.4,38.9,30.01,South,178,0.0,0.0,98,0.00,RA,FEW,0.00,WeatherDisplay:10.37,2013-01-14 05:03:00,
2013-01-14 00:04:00,39.4,38.9,30.01,South,178,0.0,0.0,98,0.00,RA,FEW,0.00,WeatherDisplay:10.37,2013-01-14 05:04:00,
2013-01-14 00:09:00,39.3,38.8,30.00,South,178,1.2,0.0,98,0.00,CLR,FEW,0.00,WeatherDisplay:10.37,2013-01-14 05:09:00,
2013-01-14 00:14:00,39.3,38.8,30.00,South,178,1.0,1.0,98,0.00,CLR,FEW,0.00,WeatherDisplay:10.37,2013-01-14 05:14:00,
2013-01-14 00:19:00,39.2,38.7,30.00,South,178,0.0,0.0,98,0.00,CLR,FEW,0.00,WeatherDisplay:10.37,2013-01-14 05:19:00,
2013-01-14 00:24:00,39.0,38.5,30.00,South,178,0.0,0.0,98,0.00,CLR,FEW,0.00,WeatherDisplay:10.37,2013-01-14 05:24:00,
2013-01-14 00:29:00,39.0,38.5,30.00,South,178,1.2,1.2,98,0.00,CLR,FEW,0.00,WeatherDisplay:10.37,2013-01-14 05:29:00,
2013-01-14 00:34:00,39.0,38.5,30.00,South,178,1.2,0.0,98,0.00,CLR,FEW,0.00,WeatherDisplay:10.37,2013-01-14 05:34:00,
2013-01-14 00:39:00,39.2,38.7,30.00,South,178,1.2,0.0,98,0.00,CLR,FEW,0.00,WeatherDisplay:10.37,2013-01-14 05:39:00,
2013-01-14 00:44:00,39.3,38.8,29.99,South,178,0.0,0.0,98,0.00,CLR,FEW,0.00,WeatherDisplay:10.37,2013-01-14 05:44:00,
2013-01-14 00:49:00,39.1,38.6,29.99,South,178,0.0,0.0,98,0.00,CLR,FEW,0.00,WeatherDisplay:10.37,2013-01-14 05:49:00,
2013-01-14 00:54:00,39.1,38.6,29.99,South,178,1.2,1.2,98,0.00,CLR,FEW,0.00,WeatherDisplay:10.37,2013-01-14 05:54:00,
2013-01-14 00:59:00,38.9,38.4,29.99,South,178,0.0,0.0,98,0.00,CLR,FEW,0.00,WeatherDisplay:10.37,2013-01-14 05:59:00,
2013-01-14 01:04:00,39.0,38.5,29.99,South,178,1.2,1.2,98,0.00,CLR,FEW,0.00,WeatherDisplay:10.37,2013-01-14 06:04:00,
2013-01-14 01:10:00,38.9,38.4,29.99,South,178,1.2,0.0,98,0.00,CLR,FEW,0.00,WeatherDisplay:10.37,2013-01-14 06:10:00,
2013-01-14 01:15:00,38.8,38.3,29.99,South,178,1.2,1.2,98,0.00,CLR,FEW,0.00,WeatherDisplay:10.37,2013-01-14 06:15:00,
2013-01-14 01:20:00,38.7,38.2,29.99,South,178,0.0,0.0,98,0.00,CLR,FEW,0.00,WeatherDisplay:10.37,2013-01-14 06:20:00,
2013-01-14 01:25:00,38.6,38.1,29.99,South,178,0.0,0.0,98,0.00,CLR,FEW,0.00,WeatherDisplay:10.37,2013-01-14 06:25:00,
2013-01-14 01:30:00,38.7,38.2,30.00,South,178,0.0,0.2,98,0.00,CLR,FEW,0.00,WeatherDisplay:10.37,2013-01-14 06:30:00,
2013-01-14 01:35:00,38.8,38.3,30.00,South,178,1.2,0.0,98,0.00,CLR,FEW,0.00,WeatherDisplay:10.37,2013-01-14 06:35:00,
2013-01-14 01:40:00,38.8,38.3,30.00,South,178,0.0,0.1,98,0.00,CLR,FEW,0.00,WeatherDisplay:10.37,2013-01-14 06:40:00,
2013-01-14 01:45:00,38.9,38.4,30.00,South,178,0.0,0.0,98,0.00,CLR,FEW,0.00,WeatherDisplay:10.37,2013-01-14 06:45:00,
2013-01-14 01:50:00,39.0,38.5,30.00,South,178,0.0,0.0,98,0.00,CLR,FEW,0.00,WeatherDisplay:10.37,2013-01-14 06:50:00,
2013-01-14 01:55:00,38.7,38.2,30.00,South,178,0.0,0.0,98,0.00,CLR,FEW,0.00,WeatherDisplay:10.37,2013-01-14 06:55:00,
2013-01-14 02:00:00,38.9,38.4,30.00,South,178,0.0,0.0,98,0.00,CLR,FEW,0.00,WeatherDisplay:10.37,2013-01-14 07:00:00,
2013-01-14 02:05:00,38.9,38.4,29.99,South,178,0.0,0.0,98,0.00,CLR,FEW,0.00,WeatherDisplay:10.37,2013-01-14 07:05:00,
2013-01-14 02:10:00,39.1,38.6,29.99,South,178,0.0,0.0,98,0.00,CLR,FEW,0.00,WeatherDisplay:10.37,2013-01-14 07:10:00,
2013-01-14 02:15:00,39.2,38.7,29.99,South,178,0.0,0.0,98,0.00,CLR,FEW,0.00,WeatherDisplay:10.37,2013-01-14 07:15:00,
2013-01-14 02:20:00,39.1,38.6,29.99,South,178,1.2,0.0,98,0.00,CLR,FEW,0.00,WeatherDisplay:10.37,2013-01-14 07:20:00,
2013-01-14 02:25:00,39.1,38.6,29.99,South,178,1.2,0.0,98,0.00,CLR,FEW,0.00,WeatherDisplay:10.37,2013-01-14 07:25:00,
2013-01-14 02:30:00,39.3,38.8,29.98,South,178,0.0,0.3,98,0.00,CLR,FEW,0.00,WeatherDisplay:10.37,2013-01-14 07:30:00,
2013-01-14 02:35:00,39.5,39.0,29.98,South,178,2.3,2.3,98,0.00,CLR,FEW,0.00,WeatherDisplay:10.37,2013-01-14 07:35:00,
2013-01-14 02:40:00,39.6,39.3,29.98,South,178,0.0,0.0,99,0.00,CLR,FEW,0.00,WeatherDisplay:10.37,2013-01-14 07:40:00,
2013-01-14 02:45:00,39.8,39.5,29.98,South,178,1.2,1.2,99,0.00,CLR,FEW,0.00,WeatherDisplay:10.37,2013-01-14 07:45:00,
2013-01-14 02:50:00,40.1,39.6,29.98,South,178,0.0,0.0,98,0.00,CLR,FEW,0.00,WeatherDisplay:10.37,2013-01-14 07:50:00,
2013-01-14 02:55:00,39.9,39.6,29.98,South,178,0.0,0.0,99,0.00,CLR,FEW,0.00,WeatherDisplay:10.37,2013-01-14 07:55:00,
2013-01-14 03:00:00,39.7,39.4,29.99,South,178,0.0,0.0,99,0.00,CLR,FEW,0.00,WeatherDisplay:10.37,2013-01-14 08:00:00,
2013-01-14 03:05:00,40.1,39.6,29.98,SE,133,4.6,4.6,98,0.00,CLR,FEW,0.00,WeatherDisplay:10.37,2013-01-14 08:05:00,
2013-01-14 03:10:00,40.6,40.3,29.98,NNW,340,2.0,2.0,99,0.00,CLR,FEW,0.00,WeatherDisplay:10.37,2013-01-14 08:10:00,
2013-01-14 03:15:00,40.7,40.2,29.98,NNW,344,0.0,0.0,98,0.00,CLR,FEW,0.00,WeatherDisplay:10.37,2013-01-14 08:15:00,
2013-01-14 03:20:00,40.4,40.1,29.97,SE,141,1.2,1.2,99,0.00,CLR,FEW,0.00,WeatherDisplay:10.37,2013-01-14 08:20:00,
2013-01-14 03:25:00,40.8,40.3,29.97,SSW,198,4.6,4.6,98,0.00,CLR,FEW,0.00,WeatherDisplay:10.37,2013-01-14 08:25:00,
2013-01-14 03:31:00,40.6,40.1,29.97,SSW,198,0.0,0.0,98,0.00,CLR,FEW,0.00,WeatherDisplay:10.37,2013-01-14 08:31:00,
2013-01-14 03:36:00,40.5,40.2,29.97,NNW,346,3.5,3.5,99,0.00,CLR,FEW,0.00,WeatherDisplay:10.37,2013-01-14 08:36:00,
2013-01-14 03:40:00,40.3,40.0,29.96,NNW,346,2.0,2.0,99,0.00,CLR,FEW,0.00,WeatherDisplay:10.37,2013-01-14 08:40:00,
2013-01-14 03:46:00,40.3,40.0,29.96,NE,40,3.5,3.5,99,0.00,CLR,FEW,0.00,WeatherDisplay:10.37,2013-01-14 08:46:00,
2013-01-14 03:51:00,40.4,40.1,29.96,ENE,63,1.2,1.2,99,0.00,CLR,FEW,0.00,WeatherDisplay:10.37,2013-01-14 08:51:00,
2013-01-14 03:56:00,40.6,40.3,29.95,NE,51,1.2,0.0,99,0.00,CLR,FEW,0.00,WeatherDisplay:10.37,2013-01-14 08:56:00,
2013-01-14 04:01:00,40.2,39.7,29.96,SSW,198,1.2,1.2,98,0.01,RA,FEW,0.01,WeatherDisplay:10.37,2013-01-14 09:01:00,
2013-01-14 04:06:00,40.1,39.6,29.96,SSW,198,1.2,1.2,98,0.01,RA,FEW,0.01,WeatherDisplay:10.37,2013-01-14 09:06:00,
2013-01-14 04:11:00,39.9,39.6,29.96,SSW,198,1.2,1.2,99,0.01,,FEW,0.01,WeatherDisplay:10.37,2013-01-14 09:11:00,
2013-01-14 04:16:00,39.9,39.6,29.97,NW,316,1.2,1.2,99,0.01,CLR,FEW,0.01,WeatherDisplay:10.37,2013-01-14 09:16:00,
2013-01-14 04:21:00,39.9,39.6,29.97,SSW,206,1.2,0.0,99,0.01,CLR,FEW,0.01,WeatherDisplay:10.37,2013-01-14 09:21:00,
2013-01-14 04:26:00,39.7,39.4,29.97,SSW,206,0.0,0.0,99,0.01,CLR,FEW,0.01,WeatherDisplay:10.37,2013-01-14 09:26:00,
2013-01-14 04:31:00,39.8,39.5,29.97,SSW,206,1.2,1.2,99,0.01,CLR,FEW,0.01,WeatherDisplay:10.37,2013-01-14 09:31:00,
2013-01-14 04:36:00,39.5,39.0,29.97,SSW,206,0.0,0.0,98,0.01,CLR,FEW,0.01,WeatherDisplay:10.37,2013-01-14 09:36:00,
2013-01-14 04:41:00,39.2,38.7,29.95,SSW,200,4.6,4.6,98,0.01,CLR,FEW,0.01,WeatherDisplay:10.37,2013-01-14 09:41:00,
2013-01-14 04:46:00,39.2,38.7,29.96,SSW,200,2.3,2.3,98,0.01,CLR,FEW,0.01,WeatherDisplay:10.37,2013-01-14 09:46:00,
2013-01-14 04:51:00,39.1,38.6,29.94,SSW,200,2.3,2.3,98,0.01,CLR,FEW,0.01,WeatherDisplay:10.37,2013-01-14 09:51:00,
2013-01-14 04:56:00,39.7,39.4,29.95,SSE,158,3.5,3.5,99,0.01,CLR,FEW,0.01,WeatherDisplay:10.37,2013-01-14 09:56:00,
2013-01-14 05:01:00,39.9,39.6,29.93,SSE,158,0.0,0.0,99,0.00,CLR,FEW,0.01,WeatherDisplay:10.37,2013-01-14 10:01:00,
2013-01-14 05:06:00,39.9,39.6,29.94,SSE,158,2.3,2.3,99,0.00,CLR,FEW,0.01,WeatherDisplay:10.37,2013-01-14 10:06:00,
2013-01-14 05:11:00,39.8,39.5,29.94,South,181,1.2,0.0,99,0.00,CLR,FEW,0.01,WeatherDisplay:10.37,2013-01-14 10:11:00,
2013-01-14 05:16:00,39.8,39.5,29.94,SSW,206,3.5,3.5,99,0.00,CLR,FEW,0.01,WeatherDisplay:10.37,2013-01-14 10:16:00,
2013-01-14 05:21:00,40.2,39.7,29.94,SSW,206,1.2,1.2,98,0.00,CLR,FEW,0.01,WeatherDisplay:10.37,2013-01-14 10:21:00,
2013-01-14 05:26:00,40.4,40.1,29.94,NW,306,1.0,1.0,99,0.00,CLR,FEW,0.01,WeatherDisplay:10.37,2013-01-14 10:26:00,
2013-01-14 05:31:00,39.9,39.4,29.94,West,270,0.0,0.1,98,0.00,CLR,FEW,0.01,WeatherDisplay:10.37,2013-01-14 10:31:00,
2013-01-14 05:36:00,39.9,39.6,29.95,SW,231,1.2,1.2,99,0.00,CLR,FEW,0.01,WeatherDisplay:10.37,2013-01-14 10:36:00,
2013-01-14 05:41:00,40.0,39.5,29.94,NNE,27,2.3,2.3,98,0.00,CLR,FEW,0.01,WeatherDisplay:10.37,2013-01-14 10:41:00,
2013-01-14 05:46:00,40.8,40.5,29.92,ESE,112,3.5,3.5,99,0.00,CLR,FEW,0.01,WeatherDisplay:10.37,2013-01-14 10:46:00,
2013-01-14 05:51:00,40.9,40.6,29.88,ESE,112,2.3,2.3,99,0.00,CLR,FEW,0.01,WeatherDisplay:10.37,2013-01-14 10:51:00,
2013-01-14 05:56:00,41.5,41.2,29.89,NW,312,3.5,3.5,99,0.00,CLR,FEW,0.01,WeatherDisplay:10.37,2013-01-14 10:56:00,
2013-01-14 06:01:00,41.8,41.5,29.90,NW,312,0.0,0.0,99,0.00,CLR,FEW,0.01,WeatherDisplay:10.37,2013-01-14 11:01:00,
2013-01-14 06:06:00,41.6,41.3,29.90,WSW,256,1.2,1.2,99,0.00,CLR,FEW,0.01,WeatherDisplay:10.37,2013-01-14 11:06:00,
2013-01-14 06:11:00,40.8,40.5,29.93,WSW,254,1.2,1.2,99,0.00,CLR,FEW,0.01,WeatherDisplay:10.37,2013-01-14 11:11:00,
2013-01-14 06:16:00,41.3,41.0,29.92,SE,128,1.2,1.2,99,0.00,CLR,FEW,0.01,WeatherDisplay:10.37,2013-01-14 11:16:00,
2013-01-14 06:21:00,41.1,40.8,29.92,SE,128,0.0,0.0,99,0.00,CLR,FEW,0.01,WeatherDisplay:10.37,2013-01-14 11:21:00,
2013-01-14 06:26:00,40.8,40.3,29.91,SE,128,2.3,2.3,98,0.00,CLR,FEW,0.01,WeatherDisplay:10.37,2013-01-14 11:26:00,
2013-01-14 06:31:00,40.8,40.3,29.92,SE,128,2.3,2.3,98,0.00,CLR,FEW,0.01,WeatherDisplay:10.37,2013-01-14 11:31:00,
2013-01-14 06:36:00,41.3,41.0,29.93,SE,128,1.2,0.0,99,0.00,CLR,FEW,0.01,WeatherDisplay:10.37,2013-01-14 11:36:00,
2013-01-14 06:41:00,41.0,40.7,29.93,SSW,205,2.0,2.0,99,0.00,CLR,FEW,0.01,WeatherDisplay:10.37,2013-01-14 11:41:00,
2013-01-14 06:46:00,41.2,40.9,29.93,NNW,335,3.5,3.5,99,0.00,CLR,FEW,0.01,WeatherDisplay:10.37,2013-01-14 11:46:00,
2013-01-14 06:51:00,41.6,41.3,29.92,NW,316,0.0,0.0,99,0.00,CLR,FEW,0.01,WeatherDisplay:10.37,2013-01-14 11:51:00,
2013-01-14 06:56:00,41.2,40.9,29.92,SW,227,2.0,2.0,99,0.00,CLR,FEW,0.01,WeatherDisplay:10.37,2013-01-14 11:56:00,
2013-01-14 07:01:00,41.2,40.9,29.92,NNW,336,1.2,1.2,99,0.00,CLR,FEW,0.01,WeatherDisplay:10.37,2013-01-14 12:01:00,
2013-01-14 07:06:00,40.4,40.1,29.92,NNW,336,0.0,0.0,99,0.00,CLR,FEW,0.01,WeatherDisplay:10.37,2013-01-14 12:06:00,
2013-01-14 07:11:00,39.7,39.4,29.94,NNW,335,1.2,1.2,99,0.00,CLR,FEW,0.01,WeatherDisplay:10.37,2013-01-14 12:11:00,
2013-01-14 07:16:00,39.6,39.1,29.94,NNW,335,1.2,1.2,98,0.01,RA,FEW,0.02,WeatherDisplay:10.37,2013-01-14 12:16:00,
2013-01-14 07:21:00,39.8,39.5,29.95,West,280,0.0,0.0,99,0.01,RA,FEW,0.02,WeatherDisplay:10.37,2013-01-14 12:21:00,
2013-01-14 07:26:00,40.2,39.9,29.95,WNW,285,0.0,0.0,99,0.01,CLR,FEW,0.02,WeatherDisplay:10.37,2013-01-14 12:26:00,
2013-01-14 07:31:00,40.0,39.5,29.95,WNW,285,1.2,0.0,98,0.01,CLR,FEW,0.02,WeatherDisplay:10.37,2013-01-14 12:31:00,
2013-01-14 07:36:00,39.7,39.4,29.96,WNW,285,1.2,1.2,99,0.01,CLR,FEW,0.02,WeatherDisplay:10.37,2013-01-14 12:36:00,
2013-01-14 07:41:00,39.4,38.9,29.96,WNW,285,0.0,0.1,98,0.01,CLR,FEW,0.02,WeatherDisplay:10.37,2013-01-14 12:41:00,
2013-01-14 07:46:00,39.3,38.8,29.96,WNW,285,1.2,0.0,98,0.01,CLR,FEW,0.02,WeatherDisplay:10.37,2013-01-14 12:46:00,
2013-01-14 07:51:00,39.3,38.8,29.96,NNE,30,3.5,0.0,98,0.01,CLR,FEW,0.02,WeatherDisplay:10.37,2013-01-14 12:51:00,
2013-01-14 07:56:00,39.3,38.8,29.96,NNE,30,1.0,0.0,98,0.01,CLR,FEW,0.02,WeatherDisplay:10.37,2013-01-14 12:56:00,
2013-01-14 08:01:00,39.3,38.8,29.97,NNE,30,0.0,0.0,98,0.01,CLR,FEW,0.02,WeatherDisplay:10.37,2013-01-14 13:01:00,
2013-01-14 08:06:00,39.2,38.7,29.97,NNE,30,1.2,1.2,98,0.01,CLR,FEW,0.02,WeatherDisplay:10.37,2013-01-14 13:06:00,
2013-01-14 08:11:00,39.6,39.1,29.98,WNW,296,0.0,0.0,98,0.01,CLR,FEW,0.02,WeatherDisplay:10.37,2013-01-14 13:11:00,
2013-01-14 08:16:00,39.5,39.0,29.98,WNW,296,0.0,0.0,98,0.00,CLR,FEW,0.02,WeatherDisplay:10.37,2013-01-14 13:16:00,
2013-01-14 08:21:00,39.4,38.9,29.98,NNE,25,1.2,1.2,98,0.00,CLR,FEW,0.02,WeatherDisplay:10.37,2013-01-14 13:21:00,
2013-01-14 08:26:00,39.5,39.0,29.98,NNE,25,0.0,0.0,98,0.00,CLR,FEW,0.02,WeatherDisplay:10.37,2013-01-14 13:26:00,
2013-01-14 08:31:00,39.5,39.0,29.98,NNE,25,0.0,0.0,98,0.00,CLR,FEW,0.02,WeatherDisplay:10.37,2013-01-14 13:31:00,
2013-01-14 08:36:00,39.5,39.0,29.99,NNE,25,0.0,0.0,98,0.00,CLR,FEW,0.02,WeatherDisplay:10.37,2013-01-14 13:36:00,
2013-01-14 08:41:00,39.8,39.5,29.99,ESE,109,0.0,0.0,99,0.00,CLR,FEW,0.02,WeatherDisplay:10.37,2013-01-14 13:41:00,
2013-01-14 08:46:00,39.8,39.5,29.99,ESE,109,1.2,1.2,99,0.00,CLR,FEW,0.02,WeatherDisplay:10.37,2013-01-14 13:46:00,
2013-01-14 08:51:00,39.9,39.6,30.00,ESE,109,1.2,1.2,99,0.00,CLR,FEW,0.02,WeatherDisplay:10.37,2013-01-14 13:51:00,
2013-01-14 08:56:00,40.0,39.5,30.00,ESE,109,0.0,0.0,98,0.00,CLR,FEW,0.02,WeatherDisplay:10.37,2013-01-14 13:56:00,
2013-01-14 09:01:00,40.0,39.5,30.00,SSW,200,1.2,1.2,98,0.00,CLR,FEW,0.02,WeatherDisplay:10.37,2013-01-14 14:01:00,
2013-01-14 09:06:00,40.1,39.6,30.01,SW,229,1.2,1.2,98,0.00,CLR,FEW,0.02,WeatherDisplay:10.37,2013-01-14 14:06:00,
2013-01-14 09:11:00,40.2,39.7,30.00,South,190,1.2,0.0,98,0.00,CLR,FEW,0.02,WeatherDisplay:10.37,2013-01-14 14:11:00,
2013-01-14 09:16:00,41.2,40.9,30.01,WNW,303,3.5,3.5,99,0.00,CLR,FEW,0.02,WeatherDisplay:10.37,2013-01-14 14:16:00,
2013-01-14 09:21:00,42.8,42.5,30.01,WNW,302,3.5,3.5,99,0.00,CLR,FEW,0.02,WeatherDisplay:10.37,2013-01-14 14:21:00,
2013-01-14 09:26:00,42.7,42.4,30.01,WNW,302,1.2,1.2,99,0.00,CLR,FEW,0.02,WeatherDisplay:10.37,2013-01-14 14:26:00,
2013-01-14 09:31:00,42.7,42.4,30.01,WNW,296,2.3,2.3,99,0.00,CLR,FEW,0.02,WeatherDisplay:10.37,2013-01-14 14:31:00,
2013-01-14 09:36:00,42.8,42.5,30.02,West,275,1.2,1.2,99,0.00,CLR,FEW,0.02,WeatherDisplay:10.37,2013-01-14 14:36:00,
2013-01-14 09:41:00,42.6,42.3,30.02,West,277,2.3,2.3,99,0.00,CLR,FEW,0.02,WeatherDisplay:10.37,2013-01-14 14:41:00,
2013-01-14 09:46:00,42.7,42.4,30.02,WNW,291,2.3,2.3,99,0.00,CLR,FEW,0.02,WeatherDisplay:10.37,2013-01-14 14:46:00,
2013-01-14 09:51:00,42.8,42.5,30.01,WNW,291,0.0,0.0,99,0.00,CLR,FEW,0.02,WeatherDisplay:10.37,2013-01-14 14:51:00,
2013-01-14 09:56:00,42.5,42.2,30.02,WNW,291,0.0,0.0,99,0.00,CLR,FEW,0.02,WeatherDisplay:10.37,2013-01-14 14:56:00,
2013-01-14 10:01:00,42.3,42.0,30.01,WSW,241,0.0,0.0,99,0.00,CLR,FEW,0.02,WeatherDisplay:10.37,2013-01-14 15:01:00,
2013-01-14 10:06:00,42.1,41.8,30.01,SSE,163,0.0,0.0,99,0.00,CLR,FEW,0.02,WeatherDisplay:10.37,2013-01-14 15:06:00,
2013-01-14 10:11:00,42.1,41.8,30.01,WSW,257,1.2,0.0,99,0.00,CLR,FEW,0.02,WeatherDisplay:10.37,2013-01-14 15:11:00,
2013-01-14 10:16:00,42.0,41.7,30.01,South,175,0.0,0.0,99,0.00,CLR,FEW,0.02,WeatherDisplay:10.37,2013-01-14 15:16:00,
2013-01-14 10:21:00,42.0,41.7,30.01,South,175,1.2,0.0,99,0.00,CLR,FEW,0.02,WeatherDisplay:10.37,2013-01-14 15:21:00,
2013-01-14 10:26:00,41.9,41.6,30.01,South,175,1.2,1.2,99,0.00,CLR,FEW,0.02,WeatherDisplay:10.37,2013-01-14 15:26:00,
2013-01-14 10:31:00,41.7,41.4,30.01,South,175,2.3,2.3,99,0.00,CLR,FEW,0.02,WeatherDisplay:10.37,2013-01-14 15:31:00,
2013-01-14 10:36:00,41.6,41.3,30.01,South,175,1.2,1.2,99,0.00,CLR,FEW,0.02,WeatherDisplay:10.37,2013-01-14 15:36:00,
2013-01-14 10:41:00,41.8,41.5,30.01,South,175,1.2,1.2,99,0.00,CLR,FEW,0.02,WeatherDisplay:10.37,2013-01-14 15:41:00,
2013-01-14 10:46:00,42.3,42.0,30.01,South,177,2.3,2.3,99,0.00,CLR,FEW,0.02,WeatherDisplay:10.37,2013-01-14 15:46:00,
2013-01-14 10:51:00,42.9,42.6,30.01,NW,307,2.3,2.3,99,0.00,CLR,FEW,0.02,WeatherDisplay:10.37,2013-01-14 15:51:00,
2013-01-14 10:56:00,43.3,43.0,30.01,WNW,290,2.3,2.3,99,0.00,CLR,FEW,0.02,WeatherDisplay:10.37,2013-01-14 15:56:00,
2013-01-14 11:01:00,43.7,43.4,30.01,WNW,290,2.3,2.3,99,0.00,CLR,FEW,0.02,WeatherDisplay:10.37,2013-01-14 16:01:00,
2013-01-14 11:06:00,44.1,43.8,30.00,West,262,1.2,0.0,99,0.00,CLR,FEW,0.02,WeatherDisplay:10.37,2013-01-14 16:06:00,
2013-01-14 11:11:00,44.3,44.0,30.01,WNW,300,3.0,3.0,99,0.00,CLR,FEW,0.02,WeatherDisplay:10.37,2013-01-14 16:11:00,
2013-01-14 11:16:00,44.6,44.3,30.01,WSW,250,2.3,2.3,99,0.00,CLR,FEW,0.02,WeatherDisplay:10.37,2013-01-14 16:16:00,
2013-01-14 11:21:00,44.3,44.0,30.01,West,259,3.5,3.5,99,0.00,CLR,FEW,0.02,WeatherDisplay:10.37,2013-01-14 16:21:00,
2013-01-14 11:26:00,44.3,44.0,30.01,WNW,300,5.0,5.0,99,0.00,CLR,FEW,0.02,WeatherDisplay:10.37,2013-01-14 16:26:00,
2013-01-14 11:31:00,44.4,44.1,30.01,West,277,6.9,6.9,99,0.00,CLR,FEW,0.02,WeatherDisplay:10.37,2013-01-14 16:31:00,
2013-01-14 11:36:00,44.2,43.9,30.01,NW,311,5.8,5.8,99,0.00,CLR,FEW,0.02,WeatherDisplay:10.37,2013-01-14 16:36:00,
2013-01-14 11:41:00,44.1,43.8,30.01,West,263,2.3,2.3,99,0.00,CLR,FEW,0.02,WeatherDisplay:10.37,2013-01-14 16:41:00,
2013-01-14 11:46:00,43.9,43.6,30.01,SW,224,3.5,3.5,99,0.00,CLR,FEW,0.02,WeatherDisplay:10.37,2013-01-14 16:46:00,
2013-01-14 11:51:00,44.6,44.3,30.01,WNW,284,3.5,3.5,99,0.00,CLR,FEW,0.02,WeatherDisplay:10.37,2013-01-14 16:51:00,
2013-01-14 11:56:00,44.5,44.2,30.02,WNW,288,3.5,3.5,99,0.00,CLR,FEW,0.02,WeatherDisplay:10.37,2013-01-14 16:56:00,
2013-01-14 12:01:00,44.5,44.2,30.02,West,263,6.9,6.9,99,0.00,CLR,FEW,0.02,WeatherDisplay:10.37,2013-01-14 17:01:00,
2013-01-14 12:06:00,44.3,43.8,30.02,NW,317,5.8,5.8,98,0.00,CLR,FEW,0.02,WeatherDisplay:10.37,2013-01-14 17:06:00,
2013-01-14 12:11:00,44.5,43.7,30.02,West,262,3.5,3.5,97,0.00,CLR,FEW,0.02,WeatherDisplay:10.37,2013-01-14 17:11:00,
2013-01-14 12:16:00,44.7,43.4,30.02,WSW,248,5.8,5.8,95,0.00,CLR,FEW,0.02,WeatherDisplay:10.37,2013-01-14 17:16:00,
2013-01-14 12:21:00,45.0,42.8,30.02,West,270,5.8,5.8,92,0.00,CLR,FEW,0.02,WeatherDisplay:10.37,2013-01-14 17:21:00,
2013-01-14 12:26:00,45.1,42.6,30.02,WNW,302,3.5,3.5,91,0.00,CLR,FEW,0.02,WeatherDisplay:10.37,2013-01-14 17:26:00,
2013-01-14 12:31:00,45.5,42.7,30.02,West,278,4.6,4.6,90,0.00,CLR,FEW,0.02,WeatherDisplay:10.37,2013-01-14 17:31:00,
2013-01-14 12:36:00,46.1,42.1,30.02,West,277,4.6,4.6,86,0.00,CLR,FEW,0.02,WeatherDisplay:10.37,2013-01-14 17:36:00,
2013-01-14 12:41:00,46.8,42.2,30.03,WNW,298,4.6,4.6,84,0.00,CLR,FEW,0.02,WeatherDisplay:10.37,2013-01-14 17:41:00,
2013-01-14 12:46:00,47.0,41.5,30.04,West,268,5.8,5.8,81,0.00,CLR,FEW,0.02,WeatherDisplay:10.37,2013-01-14 17:46:00,
2013-01-14 12:51:00,47.1,41.2,30.04,ENE,63,4.6,4.6,80,0.00,CLR,FEW,0.02,WeatherDisplay:10.37,2013-01-14 17:51:00,
2013-01-14 12:56:00,47.2,42.0,30.04,WNW,294,2.3,2.3,82,0.00,CLR,FEW,0.02,WeatherDisplay:10.37,2013-01-14 17:56:00,
2013-01-14 13:01:00,47.1,41.2,30.05,WNW,300,6.9,6.9,80,0.00,CLR,FEW,0.02,WeatherDisplay:10.37,2013-01-14 18:01:00,
2013-01-14 13:06:00,47.2,41.3,30.05,WSW,240,3.5,3.5,80,0.00,CLR,FEW,0.02,WeatherDisplay:10.37,2013-01-14 18:06:00,
2013-01-14 13:11:00,46.8,41.0,30.05,NE,34,3.5,3.5,80,0.00,CLR,FEW,0.02,WeatherDisplay:10.37,2013-01-14 18:11:00,
2013-01-14 13:15:00,46.7,40.5,30.05,NNW,342,4.6,4.6,79,0.00,CLR,FEW,0.02,WeatherDisplay:10.37,2013-01-14 18:15:00,
2013-01-14 13:20:00,46.3,40.8,30.05,NW,318,2.3,2.3,81,0.00,CLR,FEW,0.02,WeatherDisplay:10.37,2013-01-14 18:20:00,
2013-01-14 13:25:00,46.0,39.5,30.06,NW,307,1.2,0.0,78,0.00,CLR,FEW,0.02,WeatherDisplay:10.37,2013-01-14 18:25:00,
2013-01-14 13:30:00,46.2,39.4,30.06,West,279,11.5,11.5,77,0.00,CLR,FEW,0.02,WeatherDisplay:10.37,2013-01-14 18:30:00,
2013-01-14 13:35:00,46.2,39.7,30.06,SE,145,4.0,4.0,78,0.00,CLR,FEW,0.02,WeatherDisplay:10.37,2013-01-14 18:35:00,
2013-01-14 13:40:00,46.2,39.4,30.07,WNW,296,5.0,5.0,77,0.00,CLR,FEW,0.02,WeatherDisplay:10.37,2013-01-14 18:40:00,
2013-01-14 13:45:00,45.6,37.8,30.07,SW,229,6.0,6.0,74,0.00,CLR,FEW,0.02,WeatherDisplay:10.37,2013-01-14 18:45:00,
2013-01-14 13:50:00,45.2,37.7,30.08,WNW,288,6.9,6.9,75,0.00,CLR,FEW,0.02,WeatherDisplay:10.37,2013-01-14 18:50:00,
2013-01-14 13:55:00,44.9,37.8,30.08,NNW,329,3.5,3.5,76,0.00,CLR,FEW,0.02,WeatherDisplay:10.37,2013-01-14 18:55:00,
2013-01-14 14:00:00,44.5,37.7,30.08,West,281,3.5,3.5,77,0.00,CLR,FEW,0.02,WeatherDisplay:10.37,2013-01-14 19:00:00,
2013-01-14 14:05:00,44.3,36.9,30.08,South,189,4.6,4.6,75,0.00,CLR,FEW,0.02,WeatherDisplay:10.37,2013-01-14 19:05:00,
2013-01-14 14:10:00,44.2,36.8,30.08,WNW,298,7.0,7.0,75,0.00,CLR,FEW,0.02,WeatherDisplay:10.37,2013-01-14 19:10:00,
2013-01-14 14:15:00,44.4,37.0,30.09,East,86,3.5,3.5,75,0.00,CLR,FEW,0.02,WeatherDisplay:10.37,2013-01-14 19:15:00,
2013-01-14 14:20:00,44.0,36.6,30.10,NW,319,4.6,4.6,75,0.00,CLR,FEW,0.02,WeatherDisplay:10.37,2013-01-14 19:20:00,
2013-01-14 14:25:00,44.0,36.9,30.10,NW,315,2.3,2.3,76,0.00,CLR,FEW,0.02,WeatherDisplay:10.37,2013-01-14 19:25:00,
2013-01-14 14:30:00,43.8,36.4,30.10,West,278,3.5,3.5,75,0.00,CLR,FEW,0.02,WeatherDisplay:10.37,2013-01-14 19:30:00,
2013-01-14 14:35:00,43.8,36.4,30.10,WNW,289,3.0,3.0,75,0.00,CLR,FEW,0.02,WeatherDisplay:10.37,2013-01-14 19:35:00,
2013-01-14 14:40:00,44.1,35.3,30.10,WNW,296,5.8,5.8,71,0.00,CLR,FEW,0.02,WeatherDisplay:10.37,2013-01-14 19:40:00,
2013-01-14 14:45:00,44.3,34.8,30.10,WNW,291,5.8,5.8,69,0.00,CLR,FEW,0.02,WeatherDisplay:10.37,2013-01-14 19:45:00,
2013-01-14 14:50:00,44.2,35.0,30.10,NW,319,3.5,3.5,70,0.00,CLR,FEW,0.02,WeatherDisplay:10.37,2013-01-14 19:50:00,
2013-01-14 14:55:00,43.9,35.5,30.10,WNW,293,3.5,3.5,72,0.00,CLR,FEW,0.02,WeatherDisplay:10.37,2013-01-14 19:55:00,
2013-01-14 15:00:00,43.7,35.3,30.11,NW,318,3.5,3.5,72,0.00,CLR,FEW,0.02,WeatherDisplay:10.37,2013-01-14 20:00:00,
2013-01-14 15:05:00,43.4,35.3,30.11,West,281,4.6,4.6,73,0.00,CLR,FEW,0.02,WeatherDisplay:10.37,2013-01-14 20:05:00,
2013-01-14 15:10:00,43.8,34.6,30.11,NW,320,4.6,4.6,70,0.00,CLR,FEW,0.02,WeatherDisplay:10.37,2013-01-14 20:10:00,
2013-01-14 15:15:00,43.5,35.4,30.11,NW,318,4.0,4.0,73,0.00,CLR,FEW,0.02,WeatherDisplay:10.37,2013-01-14 20:15:00,
2013-01-14 15:20:00,43.3,34.5,30.12,WNW,289,3.5,3.5,71,0.00,CLR,FEW,0.02,WeatherDisplay:10.37,2013-01-14 20:20:00,
2013-01-14 15:25:00,43.2,35.5,30.12,WSW,252,3.5,3.5,74,0.00,CLR,FEW,0.02,WeatherDisplay:10.37,2013-01-14 20:25:00,
2013-01-14 15:30:00,42.8,35.4,30.13,WNW,291,2.3,2.3,75,0.00,CLR,FEW,0.02,WeatherDisplay:10.37,2013-01-14 20:30:00,
2013-01-14 15:35:00,42.4,35.4,30.13,WNW,296,1.2,1.2,76,0.00,CLR,FEW,0.02,WeatherDisplay:10.37,2013-01-14 20:35:00,
2013-01-14 15:40:00,42.3,34.9,30.13,WNW,292,4.6,4.6,75,0.00,CLR,FEW,0.02,WeatherDisplay:10.37,2013-01-14 20:40:00,
2013-01-14 15:45:00,42.6,35.2,30.13,WNW,294,6.9,6.9,75,0.00,CLR,FEW,0.02,WeatherDisplay:10.37,2013-01-14 20:45:00,
2013-01-14 15:50:00,42.1,35.1,30.13,WNW,294,3.5,3.5,76,0.00,CLR,FEW,0.02,WeatherDisplay:10.37,2013-01-14 20:50:00,
2013-01-14 15:55:00,41.4,34.1,30.13,NW,320,3.5,3.5,75,0.00,CLR,FEW,0.02,WeatherDisplay:10.37,2013-01-14 20:55:00,
2013-01-14 16:00:00,41.3,34.6,30.13,WNW,291,3.5,3.5,77,0.00,CLR,FEW,0.02,WeatherDisplay:10.37,2013-01-14 21:00:00,
2013-01-14 16:05:00,40.8,34.5,30.13,WNW,291,2.3,2.3,78,0.00,CLR,FEW,0.02,WeatherDisplay:10.37,2013-01-14 21:05:00,
2013-01-14 16:10:00,40.5,34.2,30.13,WNW,296,1.2,1.2,78,0.00,CLR,FEW,0.02,WeatherDisplay:10.37,2013-01-14 21:10:00,
2013-01-14 16:15:00,40.6,34.0,30.13,NW,321,1.2,1.2,77,0.00,CLR,FEW,0.02,WeatherDisplay:10.37,2013-01-14 21:15:00,
2013-01-14 16:20:00,40.4,34.1,30.13,NW,323,2.3,2.3,78,0.00,CLR,FEW,0.02,WeatherDisplay:10.37,2013-01-14 21:20:00,
2013-01-14 16:25:00,40.2,33.9,30.13,SE,140,3.5,3.5,78,0.00,CLR,FEW,0.02,WeatherDisplay:10.37,2013-01-14 21:25:00,
2013-01-14 16:30:00,39.9,34.2,30.13,SE,140,1.2,0.0,80,0.00,CLR,FEW,0.02,WeatherDisplay:10.37,2013-01-14 21:30:00,
2013-01-14 16:35:00,39.5,34.2,30.14,SE,140,2.3,2.3,81,0.00,CLR,FEW,0.02,WeatherDisplay:10.37,2013-01-14 21:35:00,
2013-01-14 16:40:00,39.0,34.0,30.14,SSE,160,1.2,1.2,82,0.00,CLR,FEW,0.02,WeatherDisplay:10.37,2013-01-14 21:40:00,
2013-01-14 16:45:00,38.5,34.1,30.14,SSE,160,1.2,1.2,84,0.00,CLR,FEW,0.02,WeatherDisplay:10.37,2013-01-14 21:45:00,
2013-01-14 16:50:00,38.4,33.7,30.14,WSW,245,2.3,2.3,83,0.00,CLR,FEW,0.02,WeatherDisplay:10.37,2013-01-14 21:50:00,
2013-01-14 16:55:00,38.1,33.4,30.14,WSW,245,1.2,1.2,83,0.00,CLR,FEW,0.02,WeatherDisplay:10.37,2013-01-14 21:55:00,
2013-01-14 17:00:00,38.2,33.2,30.14,WNW,288,3.5,3.5,82,0.00,CLR,FEW,0.02,WeatherDisplay:10.37,2013-01-14 22:00:00,
2013-01-14 17:05:00,38.2,33.5,30.14,WNW,288,2.3,2.3,83,0.00,CLR,FEW,0.02,WeatherDisplay:10.37,2013-01-14 22:05:00,
2013-01-14 17:10:00,37.9,33.2,30.14,WNW,299,2.3,2.3,83,0.00,CLR,FEW,0.02,WeatherDisplay:10.37,2013-01-14 22:10:00,
2013-01-14 17:15:00,37.7,33.0,30.14,WNW,302,3.5,3.5,83,0.00,CLR,FEW,0.02,WeatherDisplay:10.37,2013-01-14 22:15:00,
2013-01-14 17:20:00,37.7,33.0,30.13,West,277,3.5,3.5,83,0.00,CLR,FEW,0.02,WeatherDisplay:10.37,2013-01-14 22:20:00,
2013-01-14 17:25:00,37.5,32.5,30.13,WNW,302,4.6,4.6,82,0.00,CLR,FEW,0.02,WeatherDisplay:10.37,2013-01-14 22:25:00,
2013-01-14 17:30:00,37.6,33.2,30.14,West,269,0.0,0.0,84,0.00,CLR,FEW,0.02,WeatherDisplay:10.37,2013-01-14 22:30:00,
2013-01-14 17:35:00,37.1,33.0,30.14,West,269,1.2,1.2,85,0.00,CLR,FEW,0.02,WeatherDisplay:10.37,2013-01-14 22:35:00,
2013-01-14 17:40:00,36.6,32.8,30.14,West,269,1.2,1.2,86,0.00,CLR,FEW,0.02,WeatherDisplay:10.37,2013-01-14 22:40:00,
2013-01-14 17:45:00,36.3,32.5,30.13,SW,219,2.0,2.0,86,0.00,CLR,FEW,0.02,WeatherDisplay:10.37,2013-01-14 22:45:00,
2013-01-14 17:50:00,36.5,32.1,30.13,NW,304,0.0,0.0,84,0.00,CLR,FEW,0.02,WeatherDisplay:10.37,2013-01-14 22:50:00,
2013-01-14 17:55:00,36.5,32.4,30.14,WNW,292,0.0,0.0,85,0.00,CLR,FEW,0.02,WeatherDisplay:10.37,2013-01-14 22:55:00,
2013-01-14 18:00:00,36.2,32.4,30.14,SSW,211,1.2,0.0,86,0.00,CLR,FEW,0.02,WeatherDisplay:10.37,2013-01-14 23:00:00,
2013-01-14 18:05:00,36.0,32.2,30.13,SSW,211,0.0,0.0,86,0.00,CLR,FEW,0.02,WeatherDisplay:10.37,2013-01-14 23:05:00,
2013-01-14 18:10:00,35.8,32.0,30.15,West,268,2.3,2.3,86,0.00,CLR,FEW,0.02,WeatherDisplay:10.37,2013-01-14 23:10:00,
2013-01-14 18:15:00,35.7,31.9,30.15,SW,226,3.5,0.0,86,0.00,CLR,FEW,0.02,WeatherDisplay:10.37,2013-01-14 23:15:00,
2013-01-14 18:20:00,35.7,31.9,30.16,West,279,1.2,1.2,86,0.00,CLR,FEW,0.02,WeatherDisplay:10.37,2013-01-14 23:20:00,
2013-01-14 18:25:00,35.6,31.8,30.16,West,279,1.2,1.2,86,0.00,CLR,FEW,0.02,WeatherDisplay:10.37,2013-01-14 23:25:00,
2013-01-14 18:30:00,35.5,31.7,30.16,West,279,2.0,2.0,86,0.00,CLR,FEW,0.02,WeatherDisplay:10.37,2013-01-14 23:30:00,
2013-01-14 18:35:00,35.6,31.5,30.15,West,279,1.2,1.2,85,0.00,CLR,FEW,0.02,WeatherDisplay:10.37,2013-01-14 23:35:00,
2013-01-14 18:40:00,35.5,31.4,30.16,West,279,1.2,0.0,85,0.00,CLR,FEW,0.02,WeatherDisplay:10.37,2013-01-14 23:40:00,
2013-01-14 18:45:00,35.3,31.8,30.17,West,279,0.0,0.0,87,0.00,CLR,FEW,0.02,WeatherDisplay:10.37,2013-01-14 23:45:00,
2013-01-14 18:50:00,35.1,31.6,30.17,West,279,0.0,0.0,87,0.00,CLR,FEW,0.02,WeatherDisplay:10.37,2013-01-14 23:50:00,
2013-01-14 18:55:00,35.0,31.8,30.18,West,279,0.0,0.1,88,0.00,CLR,FEW,0.02,WeatherDisplay:10.37,2013-01-14 23:55:00,
2013-01-14 19:00:00,34.9,31.7,30.18,West,279,1.2,0.0,88,0.00,CLR,FEW,0.02,WeatherDisplay:10.37,2013-01-15 00:00:00,
2013-01-14 19:05:00,34.8,31.0,30.18,West,279,1.2,1.2,86,0.00,CLR,FEW,0.02,WeatherDisplay:10.37,2013-01-15 00:05:00,
2013-01-14 19:10:00,35.1,31.0,30.18,West,279,0.0,0.0,85,0.00,CLR,FEW,0.02,WeatherDisplay:10.37,2013-01-15 00:10:00,
2013-01-14 19:15:00,35.2,31.7,30.19,SSE,163,0.0,0.6,87,0.00,CLR,FEW,0.02,WeatherDisplay:10.37,2013-01-15 00:15:00,
2013-01-14 19:20:00,35.0,31.5,30.20,SSE,163,0.0,0.0,87,0.00,CLR,FEW,0.02,WeatherDisplay:10.37,2013-01-15 00:20:00,
2013-01-14 19:25:00,34.9,31.1,30.20,SSE,163,2.0,2.0,86,0.00,CLR,FEW,0.02,WeatherDisplay:10.37,2013-01-15 00:25:00,
2013-01-14 19:30:00,35.2,31.1,30.19,West,281,1.2,1.2,85,0.00,CLR,FEW,0.02,WeatherDisplay:10.37,2013-01-15 00:30:00,
2013-01-14 19:35:00,35.3,30.4,30.20,WNW,296,3.5,3.5,82,0.00,CLR,FEW,0.02,WeatherDisplay:10.37,2013-01-15 00:35:00,
2013-01-14 19:40:00,35.7,31.0,30.21,SSW,196,3.5,3.5,83,0.00,CLR,FEW,0.02,WeatherDisplay:10.37,2013-01-15 00:40:00,
2013-01-14 19:45:00,35.7,30.7,30.21,SSE,147,1.2,0.0,82,0.00,CLR,FEW,0.02,WeatherDisplay:10.37,2013-01-15 00:45:00,
2013-01-14 19:50:00,35.6,31.2,30.21,SSE,147,1.2,0.0,84,0.00,CLR,FEW,0.02,WeatherDisplay:10.37,2013-01-15 00:50:00,
2013-01-14 19:55:00,35.4,30.8,30.21,WSW,240,3.5,3.5,83,0.00,CLR,FEW,0.02,WeatherDisplay:10.37,2013-01-15 00:55:00,
2013-01-14 20:00:00,35.6,30.6,30.21,NW,311,0.0,0.0,82,0.00,CLR,FEW,0.02,WeatherDisplay:10.37,2013-01-15 01:00:00,
2013-01-14 20:05:00,35.7,30.1,30.21,WNW,298,2.3,2.3,80,0.00,CLR,FEW,0.02,WeatherDisplay:10.37,2013-01-15 01:05:00,
2013-01-14 20:10:00,35.9,30.3,30.22,WNW,298,3.5,3.5,80,0.00,CLR,FEW,0.02,WeatherDisplay:10.37,2013-01-15 01:10:00,
2013-01-14 20:15:00,35.8,30.5,30.22,WNW,303,3.0,3.0,81,0.00,CLR,FEW,0.02,WeatherDisplay:10.37,2013-01-15 01:15:00,
2013-01-14 20:20:00,35.8,30.8,30.22,NW,306,1.2,0.0,82,0.00,CLR,FEW,0.02,WeatherDisplay:10.37,2013-01-15 01:20:00,
2013-01-14 20:25:00,35.6,30.0,30.21,NW,321,1.2,1.2,80,0.00,CLR,FEW,0.02,WeatherDisplay:10.37,2013-01-15 01:25:00,
2013-01-14 20:30:00,35.6,30.3,30.22,WNW,292,2.3,2.3,81,0.00,CLR,FEW,0.02,WeatherDisplay:10.37,2013-01-15 01:30:00,
2013-01-14 20:35:00,35.6,30.0,30.23,WNW,303,0.0,0.0,80,0.00,CLR,FEW,0.02,WeatherDisplay:10.37,2013-01-15 01:35:00,
2013-01-14 20:40:00,35.7,28.9,30.23,WNW,296,5.8,5.8,76,0.00,CLR,FEW,0.02,WeatherDisplay:10.37,2013-01-15 01:40:00,
2013-01-14 20:45:00,35.9,29.1,30.23,NW,312,1.2,1.2,76,0.00,CLR,FEW,0.02,WeatherDisplay:10.37,2013-01-15 01:45:00,
2013-01-14 20:50:00,35.7,28.9,30.22,NW,325,3.5,3.5,76,0.00,CLR,FEW,0.02,WeatherDisplay:10.37,2013-01-15 01:50:00,
2013-01-14 20:55:00,35.6,29.4,30.22,WNW,294,3.5,3.5,78,0.00,CLR,FEW,0.02,WeatherDisplay:10.37,2013-01-15 01:55:00,
2013-01-14 21:00:00,35.5,29.0,30.23,WNW,298,1.2,1.2,77,0.00,CLR,FEW,0.02,WeatherDisplay:10.37,2013-01-15 02:00:00,
2013-01-14 21:05:00,35.3,28.2,30.22,WNW,284,2.3,2.3,75,0.00,CLR,FEW,0.02,WeatherDisplay:10.37,2013-01-15 02:05:00,
2013-01-14 21:10:00,35.3,29.1,30.22,WNW,289,1.2,1.2,78,0.00,CLR,FEW,0.02,WeatherDisplay:10.37,2013-01-15 02:10:00,
2013-01-14 21:15:00,35.1,28.6,30.22,WNW,289,1.2,0.0,77,0.00,CLR,FEW,0.02,WeatherDisplay:10.37,2013-01-15 02:15:00,
2013-01-14 21:20:00,34.9,29.7,30.23,WNW,301,0.0,0.0,81,0.00,CLR,FEW,0.02,WeatherDisplay:10.37,2013-01-15 02:20:00,
2013-01-14 21:25:00,34.6,28.8,30.22,WNW,301,0.0,0.0,79,0.00,CLR,FEW,0.02,WeatherDisplay:10.37,2013-01-15 02:25:00,
2013-01-14 21:30:00,34.4,27.9,30.22,WNW,301,0.0,0.0,77,0.00,CLR,FEW,0.02,WeatherDisplay:10.37,2013-01-15 02:30:00,
2013-01-14 21:35:00,34.4,28.6,30.22,WNW,301,0.0,0.0,79,0.00,CLR,FEW,0.02,WeatherDisplay:10.37,2013-01-15 02:35:00,
2013-01-14 21:40:00,34.2,28.7,30.22,WNW,301,1.2,0.0,80,0.00,CLR,FEW,0.02,WeatherDisplay:10.37,2013-01-15 02:40:00,
2013-01-14 21:45:00,34.1,28.0,30.23,WNW,301,2.3,2.3,78,0.00,CLR,FEW,0.02,WeatherDisplay:10.37,2013-01-15 02:45:00,
2013-01-14 21:50:00,34.2,27.4,30.23,NW,309,2.3,2.3,76,0.00,CLR,FEW,0.02,WeatherDisplay:10.37,2013-01-15 02:50:00,
2013-01-14 21:55:00,34.3,27.2,30.22,NW,318,3.5,3.5,75,0.00,CLR,FEW,0.02,WeatherDisplay:10.37,2013-01-15 02:55:00,
2013-01-14 22:00:00,34.3,27.5,30.22,NW,311,3.5,3.5,76,0.00,CLR,FEW,0.02,WeatherDisplay:10.37,2013-01-15 03:00:00,
2013-01-14 22:05:00,34.3,26.5,30.23,NW,313,3.5,3.5,73,0.00,CLR,FEW,0.02,WeatherDisplay:10.37,2013-01-15 03:05:00,
2013-01-14 22:10:00,34.4,27.0,30.24,NW,317,2.3,2.3,74,0.00,CLR,FEW,0.02,WeatherDisplay:10.37,2013-01-15 03:10:00,
2013-01-14 22:15:00,34.3,28.5,30.24,West,259,3.5,3.5,79,0.00,CLR,FEW,0.02,WeatherDisplay:10.37,2013-01-15 03:15:00,
2013-01-14 22:20:00,34.0,26.9,30.24,NW,306,3.5,3.5,75,0.00,CLR,FEW,0.02,WeatherDisplay:10.37,2013-01-15 03:20:00,
2013-01-14 22:25:00,34.0,26.9,30.24,West,271,2.3,2.3,75,0.00,CLR,FEW,0.02,WeatherDisplay:10.37,2013-01-15 03:25:00,
2013-01-14 22:30:00,34.0,27.2,30.24,WNW,289,1.2,1.2,76,0.00,CLR,FEW,0.02,WeatherDisplay:10.37,2013-01-15 03:30:00,
2013-01-14 22:35:00,33.8,28.6,30.24,WNW,289,2.3,2.3,81,0.00,CLR,FEW,0.02,WeatherDisplay:10.37,2013-01-15 03:35:00,
2013-01-14 22:40:00,33.7,28.2,30.24,WNW,289,0.0,0.0,80,0.00,CLR,FEW,0.02,WeatherDisplay:10.37,2013-01-15 03:40:00,
2013-01-14 22:45:00,33.5,27.7,30.25,WNW,289,0.0,0.0,79,0.00,CLR,FEW,0.02,WeatherDisplay:10.37,2013-01-15 03:45:00,
2013-01-14 22:50:00,33.3,27.5,30.24,WNW,289,0.0,0.0,79,0.00,CLR,FEW,0.02,WeatherDisplay:10.37,2013-01-15 03:50:00,
2013-01-14 22:55:00,33.2,28.6,30.25,WNW,289,1.2,1.2,83,0.00,CLR,FEW,0.02,WeatherDisplay:10.37,2013-01-15 03:55:00,
2013-01-14 23:00:00,33.0,28.4,30.25,WSW,239,0.0,0.0,83,0.00,CLR,FEW,0.02,WeatherDisplay:10.37,2013-01-15 04:00:00,
2013-01-14 23:05:00,32.8,27.6,30.25,WSW,239,0.0,0.0,81,0.00,CLR,FEW,0.02,WeatherDisplay:10.37,2013-01-15 04:05:00,
2013-01-14 23:10:00,32.7,27.8,30.25,WSW,239,1.2,1.2,82,0.00,CLR,FEW,0.02,WeatherDisplay:10.37,2013-01-15 04:10:00,
2013-01-14 23:15:00,32.7,27.2,30.25,West,276,2.3,2.3,80,0.00,CLR,FEW,0.02,WeatherDisplay:10.37,2013-01-15 04:15:00,
2013-01-14 23:20:00,32.8,28.5,30.26,West,276,0.0,0.0,84,0.00,CLR,FEW,0.02,WeatherDisplay:10.37,2013-01-15 04:20:00,
2013-01-14 23:25:00,32.7,28.7,30.26,West,276,0.0,0.0,85,0.00,CLR,FEW,0.02,WeatherDisplay:10.37,2013-01-15 04:25:00,
2013-01-14 23:30:00,32.5,28.8,30.27,West,276,1.2,1.2,86,0.00,CLR,FEW,0.02,WeatherDisplay:10.37,2013-01-15 04:30:00,
2013-01-14 23:35:00,32.4,28.4,30.27,West,276,0.0,0.0,85,0.00,CLR,FEW,0.02,WeatherDisplay:10.37,2013-01-15 04:35:00,
2013-01-14 23:40:00,32.4,28.7,30.27,West,276,0.0,0.0,86,0.00,CLR,FEW,0.02,WeatherDisplay:10.37,2013-01-15 04:40:00,
2013-01-14 23:45:00,32.3,28.3,30.27,West,276,0.0,0.0,85,0.00,CLR,FEW,0.02,WeatherDisplay:10.37,2013-01-15 04:45:00,
2013-01-14 23:50:00,32.3,27.1,30.27,West,276,0.0,0.0,81,0.00,CLR,FEW,0.02,WeatherDisplay:10.37,2013-01-15 04:50:00,
2013-01-14 23:55:00,32.4,27.2,30.26,West,276,0.0,0.0,81,0.00,CLR,FEW,0.02,WeatherDisplay:10.37,2013-01-15 04:55:00,